Location: Chena
(64.8152°N, 147.9227°W)
Time: 15:28:30
(UTC+00:00)

Tiros 1 - All Passes

Search period start: 27 February 2021 00:00
Search period end: 09 March 2021 00:00
Orbit: 630 x 664 km, 48.4° (Epoch: 26 February)

Date Brightness Start Highest point End Pass type
(mag) Time Alt. Az. Time Alt. Az. Time Alt. Az.
27 Feb - 16:55:40 10° S 16:56:41 11° S 16:57:41 10° SSE daylight
28 Feb - 17:20:37 10° SSW 17:21:56 11° S 17:23:15 10° SSE daylight
01 Mar - 16:05:39 10° S 16:06:34 10° S 16:07:29 10° SSE visible
01 Mar - 17:46:45 10° SSW 17:47:11 10° SSW 17:47:36 10° S daylight
02 Mar - 16:30:28 10° SSW 16:31:49 11° S 16:33:09 10° SSE daylight
03 Mar - 15:15:41 10° S 15:16:26 10° S 15:17:13 10° SSE visible
03 Mar - 16:56:21 10° SSW 16:57:03 10° S 16:57:46 10° S daylight
04 Mar - 15:40:20 10° SSW 15:41:41 11° S 15:43:02 10° SSE visible
05 Mar - 14:25:46 10° S 14:26:19 10° S 14:26:53 10° SSE visible
05 Mar - 16:06:03 10° SSW 16:06:56 10° S 16:07:49 10° S daylight
06 Mar - 14:50:13 10° SSW 14:51:34 11° S 14:52:54 10° SSE visible
07 Mar - 13:36:11 10° SSE 13:36:12 10° SSE 13:36:14 10° SSE visible
07 Mar - 15:15:48 10° SSW 15:16:49 11° S 15:17:48 10° S visible
08 Mar - 14:00:08 10° SSW 14:01:27 11° S 14:02:45 10° SSE visible
